Simultaneous Nadir Overpasses (SNOs) Predictions

Prediction of SNOs between AQUA and METOP-B Satellite Orbit:

Table of predicted SNOs for the next 14.0 days since TLE Epoch: 6/22/2018
Index Date (AQUA) Time (AQUA) Lat,Lon (AQUA) SZA (AQUA ) Date (METOP-B) Time (METOP-B) Lat,Lon (METOP-B) SZA (METOP-B ) Distance(km) Time Diff (sec)
1 06/25/2018 01:55:25 -73.91, -34.68 129.45 06/25/2018 01:54:29 -73.90, -34.72 129.45 2.00 56
2 06/25/2018 02:44:54 74.01, 132.74 50.66 06/25/2018 02:45:07 73.99, 132.84 50.64 3.58 13
3 06/25/2018 03:34:30 -74.52, -60.83 128.78 06/25/2018 03:35:37 -74.56, -58.39 128.84 72.40 67
4 06/27/2018 21:29:40 -73.90, 31.78 129.36 06/27/2018 21:28:49 -73.90, 31.70 129.34 2.57 51
5 06/27/2018 22:19:09 74.01,-160.81 50.76 06/27/2018 22:19:27 74.00,-160.74 50.75 2.49 18
6 06/27/2018 23:08:49 -74.72, 5.14 128.47 06/27/2018 23:09:54 -74.71, 8.42 128.60 96.41 65
7 06/30/2018 17:03:55 -73.89, 98.23 129.21 06/30/2018 17:03:09 -73.91, 98.12 129.18 3.88 46
8 06/30/2018 17:53:24 74.01, -94.38 50.92 06/30/2018 17:53:47 74.00, -94.32 50.91 1.91 23
9 07/03/2018 12:38:11 -73.94, 164.56 128.94 07/03/2018 12:37:28 -73.96, 164.65 128.92 3.38 43
10 07/03/2018 13:27:39 74.01, -27.96 51.14 07/03/2018 13:28:07 74.00, -27.91 51.12 1.85 28
11 07/06/2018 08:12:25 -73.95,-129.02 128.67 07/06/2018 08:11:47 -73.96,-128.94 128.66 2.78 38
12 07/06/2018 09:01:53 74.02, 38.46 51.41 07/06/2018 09:02:26 74.00, 38.50 51.39 2.63 33




NCC Satellite Simultaneous Nadir Overpasses (SNOs) Prediction Service
